Location: �quirre
(50.4736°N, 2.2351°E)
Time: 08:23:01
(UTC+00:00)

GEOS 3 Rocket - Pass Details

Date: 07 August 2020
Orbit: 770 x 849 km, 115.0° (Epoch: 26 September)

Event Time Altitude Azimuth Distance (km) Brightness Sun altitude
Rises 02:12:16 0° 41° (NE) 3,411 8.6 -16.9°
Reaches altitude 10° 02:14:39 10° 36° (NE) 2,478 7.5 -16.7°
Maximum altitude 02:19:50 49° 323° (NW) 1,083 4.4 -16.2°
Enters shadow 02:23:49 17° 254° (WSW) 2,027 5.2 -15.8°
